Retour au catalogue

CZ-6A R/B

ActifPO
NORAD 61570·ROCKET BODY·🇨🇳 China

Lancé Oct 15, 2024 depuis Taiyuan Satellite Launch Center

Loading…

Prochains Passages (prochaines 24 heures)

TLE

FraisSource: Space-Track

Époque: Sep 14, 2026, 21:03 UTC

1 61570U 24185U   26257.87732222  .00000256  00000-0  55999-4 0  9998
2 61570  89.0243  44.6033 0096004 248.7389 110.3546 14.51824178100672

Suivez CZ-6A R/B en temps réel avec AllMySat

Download on the App Store